Home > Weather > Cluj-Napoca > Past weeks

Flag for Romania Weather for the Past 2 Weeks in Cluj-Napoca, Romania

Now
54 °F

Sunny.


Feels Like: 51 °F
Forecast: 44 / 67 °F
Wind: 8 mph from West

Location: Cluj Airport-Napoca

Current Time: May 4, 2016 at 9:55:52 AM

Latest Report: May 4, 2016 at 9:00 AM


Visibility: 10 mi

Pressure: 29.86 "Hg

Humidity: 72%

Dew Point: 45 °F

Location of Cluj-NapocaLocation

Historic Weather in Cluj-Napoca — Graph

°F

Cluj-Napoca Temperature Yesterday

Maximum temperature yesterday: 61 °F (at 11:00 AM)
Minimum temperature yesterday: 50 °F (at 3:00 AM)
Average temperature yesterday: 54 °F

High & Low Weather Summary for the Past Weeks

 TemperatureHumidityPressure
High70 °F (Apr 23, 3:30 PM)100% (Apr 27, 5:30 AM)30.30 "Hg (Apr 27, 5:30 AM)
Low28 °F (Apr 27, 5:30 AM)31% (Apr 21, 2:30 PM)29.42 "Hg (Apr 24, 6:00 PM)
Average52 °F70%29.92 "Hg
* Reported Apr 19 8:00 AM — May 4 8:30 AM, Cluj-Napoca, Weather by CustomWeather, © 2016

Note: Actual official high and low records may vary slightly from our data, if they occured in-between our weather recording intervals... More about our weather records

Advertising

Cluj-Napoca Weather History for the Previous 24 Hours

Scroll right to see more
 ConditionsComfort  
Time TempWeatherWind HumidityBarometerVisibility
8:30 AM
Wed, May 4
52 °FPassing clouds.7 mph77%29.86 "HgN/A
8:00 AM50 °FPassing clouds.8 mph82%29.83 "HgN/A
7:30 AM50 °FPassing clouds.9 mph82%29.83 "HgN/A
7:00 AM50 °FClear.10 mph82%29.83 "Hg10 mi
6:30 AM48 °FClear.8 mph87%29.83 "Hg10 mi
6:00 AM48 °FClear.8 mph87%29.83 "Hg10 mi
5:30 AM48 °FClear.7 mph87%29.83 "Hg10 mi
5:00 AM48 °FClear.8 mph87%29.83 "Hg10 mi
4:00 AM48 °FPassing clouds.6 mph87%29.80 "HgN/A
3:00 AM50 °FPassing clouds.9 mph82%29.83 "HgN/A
2:00 AM50 °FPassing clouds.10 mph82%29.83 "HgN/A
1:00 AM50 °FPassing clouds.12 mph82%29.83 "HgN/A
12:00 AM50 °FPassing clouds.7 mph88%29.83 "HgN/A
11:30 PM
Tue, May 3
50 °FPassing clouds.8 mph88%29.86 "HgN/A
11:00 PM50 °FPassing clouds.8 mph88%29.86 "HgN/A
10:30 PM50 °FPassing clouds.7 mph88%29.86 "HgN/A
10:00 PM50 °FPassing clouds.6 mph88%29.86 "HgN/A
9:30 PM52 °FScattered clouds.6 mph88%29.86 "HgN/A
9:00 PM50 °FPartly sunny.5 mph88%29.86 "HgN/A
8:30 PM52 °FSprinkles. Partly sunny.5 mph82%29.83 "HgN/A
8:00 PM52 °FScattered clouds.6 mph77%29.83 "HgN/A
7:30 PM54 °FLight rain. Scattered clouds.3 mph77%29.86 "HgN/A
7:00 PM54 °FLight rain. Partly sunny.6 mph72%29.86 "HgN/A
6:30 PM54 °FBroken clouds.7 mph67%29.86 "HgN/A
6:00 PM54 °FLight rain. Partly sunny.2 mph67%29.86 "HgN/A
5:30 PM54 °FLight rain. Broken clouds.3 mph72%29.86 "HgN/A
5:00 PM55 °FSprinkles. Partly sunny.9 mph63%29.86 "HgN/A
4:30 PM54 °FSprinkles. Partly sunny.10 mph63%29.89 "HgN/A
4:00 PM54 °FPartly sunny.10 mph67%29.89 "HgN/A
3:30 PM54 °FPartly sunny.10 mph67%29.89 "HgN/A
3:00 PM54 °FSprinkles. Broken clouds.17 mph63%29.89 "HgN/A
2:30 PM54 °FSprinkles. Broken clouds.20 mph63%29.89 "HgN/A
2:00 PM59 °FPartly sunny.10 mph48%29.86 "HgN/A
1:30 PM61 °FScattered clouds.14 mph45%29.86 "HgN/A
1:00 PM61 °FPassing clouds.14 mph42%29.86 "HgN/A
12:30 PM61 °FPassing clouds.16 mph39%29.86 "HgN/A
12:00 PM61 °FPassing clouds.17 mph39%29.86 "HgN/A
11:30 AM61 °FPassing clouds.20 mph42%29.86 "HgN/A
11:00 AM61 °FPassing clouds.22 mph36%29.86 "HgN/A
10:30 AM59 °FPassing clouds.16 mph45%29.86 "HgN/A
10:00 AM59 °FPassing clouds.16 mph48%29.86 "HgN/A
9:30 AM55 °FScattered clouds.No wind63%29.86 "HgN/A
9:00 AM54 °FScattered clouds.No wind72%29.86 "HgN/A
Weather by CustomWeather, © 2016

See weather overviewHow to use our weather pages